Погода в Талшике

Казахстан     53°38′17″N   71°52′14″E
темп.,
°C
ветер,
м/с
пор.,
м/с
влажн.,
%
обл.,
%
осадки,
мм/ч
давл.,
гПа
погр.,
м
5 декабря, вс
вс500:00−2ююз499236 0.0 1026138
03:000юз51190100 0.0 1024257
06:00−2юз41091100 0.0 1024190
09:00−3ююз4108979 0.0 1023171
12:000юз5128586 0.0 1022269
15:000юз41085100 0.0 1020234
18:00−3юз488555 0.0 1020116
21:00−3ююз498511 0.0 1020136
6 декабря, пн
пн600:00−4юз488614 0.0 1019109
03:00−5зюз388687 0.0 1019109
06:00−6зюз378991 0.0 1018104
09:00−6зюз3589100 0.0 101887
12:00−4юз3786100 0.0 1018171
15:00−3юз4984100 0.0 1016240
18:00−3юз41086100 0.0 1015263
21:00−3зюз61194100 0.1 1015425
7 декабря, вт
вт700:00−3зсз7129278 0.2 1018460
03:00−7зсз6119365 0.0 1021306
06:00−11зсз6119387 0.0 1024296
09:00−14сз48938 0.0 1028238
12:00−14сз46875 0.0 1032249
15:00−13зсз35855 0.0 1033277
18:00−16з22945 0.0 103533
21:00−17зюз22955 0.0 103627
8 декабря, ср
ср800:00−17зюз22955 0.0 103635
03:00−17зюз23955 0.0 103736
06:00−17з35925 0.0 103776
09:00−17з37945 0.0 1037122
12:00−15з48905 0.0 1038233
15:00−15зсз48885 0.0 1039270
18:00−17з47935 0.0 1040119
21:00−18з36929 0.0 104289
9 декабря, чт
чт900:00−18з3491100 0.0 104261
03:00−16зюз248998 0.0 104382
06:00−14юз3585100 0.0 1043120
09:00−13юз3584100 0.0 1042111
12:00−9ююз3777100 0.0 1042221
15:00−7юз4889100 0.1 1041306
18:00−7юз4107780 0.1 1040256
21:00−7юз5117487 0.0 1039273